AO-07 1 07530U 74089B 14324.16830031 -.00000053 00000-0 -62501-4 0 1225 2 07530 101.4933 300.9733 0011995 352.3595 138.4967 12.53609343831062 FO-29 1 24278U 96046B 14323.88194395 -.00000002 00000-0 36430-4 0 5212 2 24278 098.5171 316.2655 0349507 253.5978 165.9043 13.53036804901721 SO-33 1 25509U 98061B 14323.51281520 .00000569 00000-0 10169-3 0 8845 2 25509 031.4325 000.1919 0348710 035.3788 075.9914 14.29746358839394 RS-22 1 27939U 03042A 14324.60597873 .00001960 00000-0 36945-3 0 579 2 27939 097.8179 131.1244 0012953 335.1415 024.9177 14.65528124595637 HO-68 1 36122U 09072B 14324.75903660 -.00000060 00000-0 -43517-4 0 1367 2 36122 100.2287 011.7148 0007072 236.4620 123.5817 13.16320372237037 AO-73 1 39444U 13066AE 14323.80493097 .00004379 00000-0 57957-3 0 3109 2 39444 097.7600 029.0835 0062507 097.7063 263.1252 14.79051142 52466 EO-79 1 40025U 14033R 14324.69663317 .00004691 00000-0 54310-3 0 4550 2 40025 097.9638 219.5849 0014192 140.5664 219.6597 14.85918688 22827 UO-11 1 14781U 84021B 14323.75612572 .00001216 00000-0 16009-3 0 6686 2 14781 097.8326 020.7026 0009226 042.9191 317.2740 14.81913086651007 AO-16 1 20439U 90005D 14324.37404016 .00000310 00000-0 13044-3 0 1756 2 20439 098.5221 258.8618 0011814 061.8990 052.5851 14.32431329296840 LO-19 1 20442U 90005G 14323.82714190 .00000270 00000-0 11501-3 0 1094 2 20442 098.4930 258.5108 0012610 052.4619 307.7709 14.32628967296966 AO-27 1 22825U 93061C 14324.81134718 .00000254 00000-0 11618-3 0 8232 2 22825 098.6824 270.1922 0008329 191.4786 227.8904 14.29784893103167 IO-26 1 22826U 93061D 14324.83196277 .00000287 00000-0 12826-3 0 5801 2 22826 098.6765 270.4083 0009021 184.1306 175.9803 14.30091874103309 GO-32 1 25397U 98043D 14324.14931751 .00000150 00000-0 84476-4 0 5013 2 25397 098.4920 276.4818 0001321 161.3242 319.7041 14.23485192850054 NO-44 1 26931U 01043C 14323.85715331 .00000204 00000-0 11078-3 0 7551 2 26931 067.0525 357.0137 0007527 272.0230 088.0008 14.30195671685865 SO-50 1 27607U 02058C 14324.81840214 .00001560 00000-0 24868-3 0 5796 2 27607 064.5559 114.7590 0066214 330.9543 028.7880 14.74142435640560 CO-55 1 27844U 03031E 14324.02712377 .00000412 00000-0 20745-3 0 736 2 27844 098.6974 330.5590 0009946 179.3625 201.1284 14.21623113590721 CO-57 1 27848U 03031J 14324.86076569 .00000383 00000-0 19572-3 0 157 2 27848 098.7072 331.1770 0009788 183.6252 296.5487 14.21295876590757 AO-51 1 28375U 04025K 14324.80853298 .00000412 00000-0 13521-3 0 9951 2 28375 098.2701 266.5250 0082013 238.4952 120.8206 14.41503961546465 CP3 1 31129U 07012N 14324.83532992 .00002105 00000-0 46824-3 0 9031 2 31129 097.9535 295.0718 0096295 242.6348 179.8965 14.55156084402817 CO-65 1 32785U 08021C 14323.83215884 .00003776 00000-0 43838-3 0 1194 2 32785 097.6803 009.8868 0014545 042.3719 045.6418 14.85891292355138 PRISM 1 33493U 09002B 14324.75401167 .00008888 00000-0 90547-3 0 5028 2 33493 098.2519 147.2628 0016451 295.2072 064.7455 14.90860135315492 SOHLA-1 1 33496U 09002E 14324.86398557 .00000965 00000-0 16552-3 0 5179 2 33496 098.1884 086.3710 0007563 105.6402 012.5356 14.71026610312544 TISAT-1 1 36799U 10035E 14324.85891405 .00006333 00000-0 71684-3 0 7214 2 36799 098.0190 058.1129 0013804 166.4432 318.0358 14.86719839235982 STUDSAT 1 36801U 10035G 14324.87157550 .00035184 00000-0 27075-2 0 9375 2 36801 098.0519 069.6479 0005635 132.6583 339.8527 15.01570587236591 ALMASAT-1 1 38078U 12006B 14322.57292693 .00073063 39303-5 13988-2 0 2132 2 38078 069.4659 044.5016 0552846 186.0636 173.3623 14.60630964144088 XATCOBEO 1 38082U 12006F 14243.34478676 .13583328 43697-5 37939-3 0 5637 2 38082 069.3815 097.0364 0033293 225.1799 135.4582 16.41261006136239 CUBEBUG-1 1 39153U 13018D 14324.75215287 .00004059 00000-0 56464-3 0 6549 2 39153 098.0343 044.6990 0017374 202.5864 157.4584 14.78281915 84676 ESTCUBE-1 1 39161U 13021C 14324.76151089 .00002620 00000-0 44054-3 0 6793 2 39161 098.0864 044.4570 0008505 257.0090 103.0162 14.70438203 82603 DUCHIFAT-1 1 40021U 14033M 14324.67741718 .00006111 00000-0 69940-3 0 4550 2 40021 097.9663 219.6447 0014418 140.6699 219.5634 14.86271173 22818 NANOSATCBR1 1 40024U 14033Q 14324.69030694 .00005507 00000-0 63404-3 0 4488 2 40024 097.9642 219.5970 0013967 138.4998 221.7308 14.86076681 22813 DTUSAT-2 1 40030U 14033W 14324.66778283 .00004328 00000-0 50632-3 0 4462 2 40030 097.9636 219.4493 0013774 133.3369 226.9031 14.85533954 22814 ANTELSAT 1 40034U 14033AA 14324.67104348 .00003406 00000-0 53747-3 0 4558 2 40034 097.9639 216.1327 0062662 067.0736 293.7102 14.71725354 22613 MET-2/21 1 22782U 93055A 14324.77138770 .00000091 00000-0 68420-4 0 2286 2 22782 082.5512 049.0597 0022657 182.7893 289.9877 13.83753434 71773 OKEAN-4 1 23317U 94066A 14324.87153350 .00003169 00000-0 35932-3 0 7135 2 23317 082.5384 280.9849 0018729 302.9644 114.2274 14.85965718 86372 NOAA-14 1 23455U 94089A 14324.31016487 .00000049 00000-0 48795-4 0 9870 2 23455 098.7697 044.9083 0008658 318.6818 081.3576 14.14002229 26011 NOAA-15 1 25338U 98030A 14324.52188237 .00000231 00000-0 11663-3 0 4273 2 25338 098.7628 318.1630 0011428 058.5261 098.8849 14.25509972859112 RESURS 1 25394U 98043A 14324.02360800 .00000119 00000-0 69315-4 0 8112 2 25394 098.4366 281.9994 0002119 136.4997 265.3259 14.24416675850505 FENGYUN1 1 25730U 99025A 14324.85343410 .00004250 00000-0 23195-2 0 3003 2 25730 098.9258 285.1095 0022662 027.4314 024.5292 14.12468981799631 OKEAN-0 1 25860U 99039A 14323.88623983 .00001298 00000-0 19789-3 0 4195 2 25860 098.0657 287.0302 0000995 103.0185 309.8297 14.75572407825118 NOAA-16 1 26536U 00055A 14324.49809549 .00000165 00000-0 11246-3 0 9252 2 26536 098.9717 025.3893 0011449 103.1812 257.0638 14.13054601730185 NOAA-17 1 27453U 02032A 14324.51776793 .00000144 00000-0 79005-4 0 8158 2 27453 098.3236 316.0718 0012856 077.9885 282.2735 14.24818190644940 NOAA-18 1 28654U 05018A 14324.56380448 .00000109 00000-0 84899-4 0 3403 2 28654 099.1662 307.3433 0014365 181.8591 284.5345 14.12101735489631 NOAA-19 1 33591U 09005A 14324.55477512 .00000423 00000-0 25625-3 0 4701 2 33591 098.9643 269.2511 0014669 041.8721 059.5257 14.11808337298050 HUBBLE 1 20580U 90037B 14324.62363573 .00004456 00000-0 28493-3 0 1601 2 20580 028.4705 088.2914 0003188 150.7650 329.6566 15.06206619148320 ISS 1 25544U 98067A 14324.78786666 .00023755 00000-0 40428-3 0 4389 2 25544 051.6468 043.2124 0006793 050.5977 045.8703 15.51260503915624 CO-58 1 28895U 05043F 14324.80015273 .00002006 00000-0 40626-3 0 9252 2 28895 097.8223 158.4861 0016295 233.4816 126.4887 14.62222756483130 FALCON 1 30776U 07006E 14324.19309520 .00016722 00000-0 77991-3 0 84 2 30776 035.4279 226.3168 0003931 258.3829 232.0513 15.19060159424447 MAST 1 31126U 07012K 14324.81866613 .00001088 00000-0 24621-3 0 2073 2 31126 097.9343 297.7241 0090805 225.1006 201.8589 14.55597354403176 CAPE1 1 31130U 07012P 14323.87920998 .00002184 00000-0 48808-3 0 2127 2 31130 097.9546 293.6899 0096922 247.2512 111.8421 14.54871302402444 COMPASS 1 32787U 08021E 14323.80778767 .00007460 00000-0 79788-3 0 1037 2 32787 097.6827 012.7993 0014114 033.1119 327.0979 14.88943808355337 AAUSAT2 1 32788U 08021F 14324.67380605 .00007351 00000-0 77036-3 0 913 2 32788 097.6831 014.8269 0013390 028.4246 331.7700 14.89784404355537 DO-64 1 32789U 08021G 14324.78992149 .00014559 00000-0 13099-2 0 1364 2 32789 097.7029 023.0565 0011329 009.8194 114.9403 14.95690264355880 CO-66 1 32791U 08021J 14324.78739366 .00005047 00000-0 56264-3 0 865 2 32791 097.6816 012.1687 0014824 033.7301 326.4855 14.87400100355328 RS-30 1 32953U 08025A 14324.69640643 .00000010 00000-0 -13620-7 0 4838 2 32953 082.5028 103.9010 0019189 173.2920 186.8430 12.43052818294701 METEOR-M 1 35865U 09049A 14324.72111962 .00000200 00000-0 10991-3 0 921 2 35865 098.5304 007.2298 0002945 018.4228 341.7050 14.21953574268581 RS-38 1 35869U 09049E 14324.72466168 .00000144 00000-0 83962-4 0 9965 2 35869 098.5218 006.9609 0005025 009.0130 351.1151 14.22245086268626 JUGNU 1 37839U 11058B 14323.47575390 .00000579 00000-0 16725-3 0 7362 2 37839 019.9630 033.7388 0018905 256.4243 221.8849 14.12374090160531 SRMSAT 1 37841U 11058D 14324.31220288 .00000512 00000-0 13724-3 0 7400 2 37841 019.9734 051.1298 0011595 198.6725 210.9839 14.10403691160427 RAX-2 1 37853U 11061D 14324.84282300 .00010912 00000-0 71579-3 0 9676 2 37853 101.7035 069.3851 0209330 322.8209 148.8073 14.91757049165998 AUBIESAT 1 37854U 11061E 14324.88189703 .00011732 00000-0 74258-3 0 9649 2 37854 101.7088 071.8933 0206230 319.0025 158.2980 14.93354521166078 HRBE 1 37855U 11061F 14324.86041049 .00010746 00000-0 69092-3 0 9855 2 37855 101.7086 070.9614 0208864 320.8563 037.7689 14.92507537166023 RS-39 1 38051U 11062C 14288.65876392 .70201582 12497-4 27925-2 0 413 2 38051 051.5964 324.1908 0006422 269.6897 186.8903 16.43533377153081 E-STAR 1 38079U 12006C 14324.54771658 .00249603 19426-4 15653-2 0 716 2 38079 069.4333 289.9060 0212294 124.1260 238.0254 15.51586698147287 GOLIAT 1 38085U 12006J 14324.72943157 .00196046 12530-4 14888-2 0 5544 2 38085 069.4358 301.2786 0252354 129.7504 290.2035 15.40349966147007 HORYU-2 1 38340U 12025D 14323.87420259 .00004794 00000-0 75016-3 0 232 2 38340 098.2850 283.9271 0013399 046.8693 313.3633 14.73183764134706 RS-40 1 38735U 12041C 14324.73167149 .00000040 00000-0 21992-3 0 7859 2 38735 082.4778 189.9414 0016329 275.8204 084.1015 12.42563673105025 PROITERES 1 38756U 12047B 14324.75057274 .00001891 00000-0 28686-3 0 4238 2 38756 098.2229 055.6020 0011071 242.4022 117.6068 14.75288798118263 BEESAT-3 1 39134U 13015E 14323.49027819 .00016125 00000-0 10473-2 0 7713 2 39134 064.8758 006.3184 0036321 283.2411 076.4660 15.07647016 87043 BEESAT-2 1 39136U 13015G 14324.55844571 .00013081 00000-0 87312-3 0 7530 2 39136 064.8757 003.9652 0036568 282.9469 076.7569 15.06745209 87187 LO-75 1 39382U 13064C 14295.69194059 .07301741 00000-0 36367-2 0 4875 2 39382 040.4713 030.2705 0002289 341.7175 018.4586 16.19795749470823 ZACUBE-1 1 39417U 13066B 14324.72614900 .00003662 00000-0 48927-3 0 4695 2 39417 097.7597 029.8772 0063003 095.1400 265.7006 14.78731742 53824 TRITON-1 1 39427U 13066M 14324.73820521 .00002540 00000-0 42676-3 0 3200 2 39427 097.7463 022.5050 0118598 112.0028 249.3827 14.65890005 53329 DELFIN3XT 1 39428U 13066N 14324.73586064 .00005053 00000-0 86063-3 0 3246 2 39428 097.7462 021.2704 0128298 115.3639 246.0913 14.64113787 53237 GOMX-1 1 39430U 13066Q 14324.74844447 .00002953 00000-0 55977-3 0 9996 2 39430 097.7368 017.6610 0156899 125.6483 235.9415 14.57315201 53016 MO-76 1 39436U 13066W 14323.76559411 .00035209 00000-0 31789-2 0 4109 2 39436 097.7677 035.2820 0024366 093.6557 266.7451 14.95167853 54072 LO-74 1 39440U 13066AA 14323.79906578 .00003133 00000-0 46120-3 0 3169 2 39440 097.7555 026.0658 0084840 103.8574 257.2092 14.73624620 53492 PUCPSAT-1 1 39442U 13066AC 14323.80307355 .00006825 00000-0 75873-3 0 3158 2 39442 097.7662 033.5563 0035465 093.9900 266.5372 14.87019785 52737 SHINAISAT 1 39572U 14009A 14324.81721274 .02345646 72532-5 11129-2 0 4294 2 39572 064.9859 209.5809 0012303 257.0557 102.9247 16.20910251 41863 TEIKYOSAT 1 39576U 14009E 14297.85867254 .09345816 76764-5 25176-3 0 4374 2 39576 064.9818 300.5833 0008491 317.3597 044.3862 16.45008906 37698 CO-77 1 39577U 14009F 14244.78324653 .10543803 76292-5 32273-3 0 3795 2 39577 064.9920 123.7668 0014904 269.7208 091.1897 16.43552757 29380 SPROUT 1 39770U 14029E 14324.01910950 .00002630 00000-0 32948-3 0 1971 2 39770 097.8722 058.8218 0010626 157.3111 202.8569 14.83050972 26626 POPSAT-HIP1 1 40028U 14033U 14324.84813919 .00004617 00000-0 53662-3 0 4732 2 40028 097.9691 219.7694 0015375 137.8783 222.3627 14.85753398 22835 EO-80 1 40032U 14033Y 14324.67017225 .00004202 00000-0 49227-3 0 4590 2 40032 097.9644 219.4615 0013252 133.3666 226.8696 14.85500904 22817 VELOX-1 1 40057U 14034E 14324.77883388 .00004394 00000-0 66622-3 0 4602 2 40057 098.2374 034.4200 0011801 178.4471 181.6781 14.74604676 21153 DAURIA DX 1 1 40071U 14037C 14324.77799886 .00002053 00000-0 28017-3 0 4336 2 40071 098.3850 022.3991 0008466 179.4070 180.7139 14.79805176 19967 UKUBE-1 1 40074U 14037F 14324.75745962 .00004246 00000-0 55564-3 0 4347 2 40074 098.3857 022.6048 0004562 182.5039 177.6148 14.80975403 19975 CHASQUI-1 1 40117U 98067ET 14324.48490703 .00183063 00000-0 16317-2 0 2929 2 40117 051.6417 040.4295 0007759 348.7815 104.5472 15.67304315 14606 HODOYOSHI-1 1 40299U 14070B 14324.82867557 .00008816 00000-0 44710-3 0 463 2 40299 097.4745 044.0745 0015121 135.0830 342.7319 15.17076075 2196 CHUBUSAT-1 1 40300U 14070C 14324.78259531 .00009555 00000-0 51206-3 0 467 2 40300 097.4720 043.9782 0024702 135.7970 338.8614 15.14938082 2183 QSAT-EOS 1 40301U 14070D 14324.80781595 .00008071 00000-0 46205-3 0 488 2 40301 097.4693 043.9420 0036224 135.0561 342.2891 15.12326151 2196 TSUBAME 1 40302U 14070E 14324.89935826 .00012251 00000-0 73613-3 0 462 2 40302 097.4669 043.9761 0047149 135.8201 358.5500 15.10075706 2197 /EX